Device Time, Absolute Throttle Position B(%),Accelerator PedalPosition D(%),Accelerator PedalPosition E(%),Air Fuel Ratio(Commanded)(:1),Air Fuel Ratio(Measured)(:1),Engine Coolant Temperature(°C),Engine Load(%),Engine Load(Absolute)(%),Engine Oil Temperature(°C),Engine RPM(rpm),Fuel Rail Pressure(psi),Fuel Trim Bank 1 Long Term(%),Fuel Trim Bank 1 Short Term(%),Intake Air Temperature(°C),Intake Manifold Pressure(psi),Mass Air Flow Rate(cfm),Relative Accelerator Pedal Position(%),Relative Throttle Position(%),Speed (OBD)(mph),Throttle Position(Manifold)(%),Timing Advance(°),Turbo Boost & Vacuum Gauge(psi)
04-Dec-2021 16:53:16.640,30.98039246,13.33333397,-,14.67039204,14.7385807,47,-,-,-,971.5,-,-2.34375,10.15625,18,7.54196215,33.28876877,-,-,1.24274242,14.11764717,-,-7.10684919
04-Dec-2021 16:53:17.638,32.15686417,13.33333397,-,14.63539982,14.30387878,54,16.47058868,-,-,1681.25,-,0,7.8125,19,10.73279285,26.55080223,-,-,0,14.11764717,16,-3.77098083
04-Dec-2021 16:53:18.639,32.54901886,22.35294151,25.09803963,14.53087521,14.72960758,54,63.13725662,23.13725471,31,1828.25,1124.04248047,-2.34375,2.34375,19,10.5877552,198.52940369,2.74509811,3.92156863,1.86411357,17.64705849,28,-3.91601849
04-Dec-2021 16:53:19.638,32.54901886,21.17647171,21.96078491,14.67039204,15.08670044,54,44.70588303,13.33333302,31,1440.25,822.36395264,0,4.6875,19,5.07632065,37.54010391,3.13725495,3.92156863,3.72822714,14.11764717,19.5,-9.42745304
04-Dec-2021 16:53:20.640,36.47058868,23.52941132,24.31372643,14.67039204,13.90955257,55,75.6862793,56.86274338,31,1001.25,955.79870605,-2.34375,10.9375,19,13.19843388,94.3315506,6.27450991,9.8039217,3.72822714,18.03921509,14,-1.30533981
04-Dec-2021 16:53:21.641,34.50980377,21.96078491,23.13725471,14.55330467,13.77766132,55,58.03921509,34.50980377,31,1375,1329.99609375,0,3.125,19,11.02286816,95.37433624,4.31372547,6.66666698,5.59234095,21.17647171,19,-3.48090553
04-Dec-2021 16:53:22.641,32.15686417,20.3921566,20.7843132,14.61027908,14.83009624,55,38.03921509,26.66666603,32,1180,774.50152588,-2.34375,4.6875,19,9.28241539,51.09625626,2.35294127,3.92156863,6.21371174,14.90196133,23.5,-5.2213583
04-Dec-2021 16:53:23.641,30.98039246,13.33333397,21.17647171,14.65827847,14.64571762,55,41.96078491,31.76470566,32,982.75,818.01281738,-0.78125,1.5625,19,8.84730244,53.82352829,0,2.74509811,4.97096968,14.90196133,21,-5.65647125
04-Dec-2021 16:53:24.640,31.37254906,13.33333397,12.94117641,14.66680241,14.77850628,55,23.92156982,20.3921566,32,980,742.59320068,0,2.34375,19,6.38166046,33.04812622,0,2.74509811,3.10685587,14.11764717,14.5,-8.12211323
04-Dec-2021 16:53:25.640,30.98039246,13.33333397,12.94117641,14.66769886,15.63355446,55,31.37254906,21.96078491,32,870.5,764.34887695,0,4.6875,19,6.67173576,29.83957291,0,2.74509811,1.86411357,14.11764717,18,-7.83203793
04-Dec-2021 16:53:26.647,34.50980377,21.56862831,17.25490189,14.66949463,15.30562115,55,27.45098114,50.58823395,32,879.75,1134.19506836,0,9.375,19,8.55722618,34.41176224,2.35294127,3.92156863,1.24274242,35.29411697,15,-5.94654751
04-Dec-2021 16:53:27.639,31.37254906,13.33333397,15.68627453,14.6398859,11.51936626,55,100,9.8039217,32,1700.25,905.03546143,0,12.5,19,6.67173576,56.63101578,13.33333397,2.74509811,1.86411357,14.11764717,20.5,-7.83203793
04-Dec-2021 16:53:28.639,32.54901886,17.25490189,18.03921509,14.65827847,16.14631271,55,37.25490189,18.8235302,32,1726,881.82946777,-0.78125,2.34375,19,9.57249069,30.08021355,3.13725495,4.31372547,3.72822714,14.50980377,27,-4.931283
04-Dec-2021 16:53:29.639,30.98039246,13.33333397,12.94117641,14.65962601,13.76420212,56,51.37255096,15.68627453,32,1061.5,654.12017822,0,3.90625,19,6.23662281,29.67914391,0,2.35294127,4.34959841,13.72549057,16.5,-8.26715088
04-Dec-2021 16:53:30.639,31.37254906,13.33333397,12.94117641,14.66814899,15.7748661,56,32.15686417,22.74509811,32,886.75,677.32623291,0,4.6875,19,6.67173576,32.00534821,0,2.74509811,1.86411357,14.11764717,18.5,-7.83203793
04-Dec-2021 16:53:31.639,32.54901886,28.23529434,26.27450943,14.54208851,15.12662601,56,14.11764717,94.90196228,32,1531.75,970.30249023,-1.5625,8.59375,19,13.92362309,45.16042709,2.35294127,4.31372547,0,26.27450943,9,-0.5801506
04-Dec-2021 16:53:32.640,34.90196228,22.35294151,23.13725471,14.55913639,12.24162579,56,100,12.15686321,33,1427.25,1315.49230957,-1.5625,4.6875,19,7.54196215,36.25668335,5.09803915,7.45098066,3.10685587,22.35294151,16.5,-6.96181107
04-Dec-2021 16:53:33.638,38.03921509,23.52941132,24.31372643,14.53984642,14.89873409,56,61.96078491,46.27450943,33,2081.25,1154.50036621,-1.5625,-0.78125,19,11.74805641,150.0802002,6.66666698,11.37254906,9.94193935,20,23,-2.75571728
04-Dec-2021 16:53:34.639,38.03921509,23.92156982,24.70588303,14.5277338,14.368927,56,49.80392075,46.66666794,33,2869.25,1580.91137695,-1.5625,0,18,10.29767895,200.13369751,6.66666698,11.37254906,13.67016602,20,38,-4.20609474
04-Dec-2021 16:53:35.640,31.37254906,18.4313736,12.94117641,14.69999981,20.29997826,56,0,9.01960754,33,2840.75,1067.4777832,0,0,18,3.48090577,47.32620239,0,3.13725495,16.15565109,14.50980377,39,-11.02286816
04-Dec-2021 16:53:36.639,39.60784531,23.92156982,24.70588303,14.69999981,20.29997826,57,29.01960754,50.98039246,33,2297.75,577.25018311,-2.34375,0,18,11.45798111,186.65776062,7.05882359,12.54901981,18.01976395,16.86274529,20,-3.04579258
04-Dec-2021 16:53:37.639,36.86274719,22.74509811,23.52941132,14.53446293,14.59906292,57,40.39215851,37.64706039,33,2604.5,1496.78942871,0,0,18,8.84730244,146.06950378,5.88235283,9.4117651,20.50524902,22.35294151,36,-5.65647125
04-Dec-2021 16:53:38.641,34.11764908,13.33333397,12.94117641,14.69999981,17.67158127,57,0,13.33333302,33,2662.5,860.0737915,0,0,18,4.6412077,49.81283569,1.17647064,3.13725495,22.36936378,14.50980377,40,-9.86256599
04-Dec-2021 16:53:39.638,32.15686417,19.6078434,20,13.79470825,13.20254517,57,0,14.90196037,34,2078.5,416.25830078,-2.34375,-0.78125,17,4.06105661,55.58823395,0.39215687,3.52941179,23.61210442,15.29411793,44,-10.4427166
04-Dec-2021 16:53:40.641,32.15686417,19.6078434,20.3921566,14.12308979,12.9836235,57,20,14.11764717,34,2150.75,388.70114136,-2.34375,-4.6875,17,4.35113192,49.01069641,2.35294127,4.31372547,24.23347664,15.29411793,44.5,-10.1526413
04-Dec-2021 16:53:41.642,32.54901886,20,20.3921566,14.47838688,14.62822247,58,20,16.07843208,34,2195.75,419.15905762,-2.34375,-3.90625,17,4.6412077,56.06951523,2.74509811,4.31372547,24.85484695,15.68627453,46,-9.86256599
04-Dec-2021 16:53:42.641,32.94117737,20.7843132,21.56862831,14.59098721,15.0252409,58,25.49019623,18.43137169,34,2234.25,461.22000122,-2.34375,-3.90625,17,5.36639643,70.34759521,3.52941179,5.88235283,24.85484695,16.86274529,43.5,-9.13737679
04-Dec-2021 16:53:43.640,32.94117737,20.3921566,21.17647171,14.59412861,14.77940369,58,25.49019623,17.64705849,34,2254,414.80792236,-2.34375,0,17,5.22135878,63.8502655,3.13725495,4.70588255,25.47621918,16.86274529,43.5,-9.28241539
04-Dec-2021 16:53:44.639,32.94117737,20.3921566,21.17647171,14.59681988,14.69327068,58,19.6078434,17.64705849,35,2288.5,439.46435547,-2.34375,-1.5625,17,5.22135878,63.8502655,3.92156863,5.88235283,25.47621918,15.68627453,46,-9.28241539
04-Dec-2021 16:53:45.638,33.72549057,21.17647171,20,14.59233475,14.68115807,58,24.31372643,14.90196037,35,2240.75,424.96057129,-2.34375,-3.90625,17,4.931283,62.48662949,3.52941179,5.88235283,25.47621918,16.86274529,44.5,-9.57249069
04-Dec-2021 16:53:46.639,35.68627548,22.35294151,22.74509811,14.57528687,15.28363895,58,43.52941132,34.11764526,35,2266.25,622.21191406,-2.34375,0,17,8.26715088,123.04812622,4.70588255,7.84313726,25.47621918,18.4313736,40.5,-6.23662281
04-Dec-2021 16:53:47.638,36.47058868,22.74509811,23.52941132,14.56182861,14.49633121,59,47.45098114,42.35293961,35,2301,948.54681396,-1.5625,6.25,17,9.86256599,141.65774536,5.49019623,9.4117651,26.09758949,19.6078434,32,-4.6412077
04-Dec-2021 16:53:48.638,36.86274719,23.13725471,23.92156982,14.53446293,14.27427006,59,54.50980377,42.74509811,35,2347.5,1367.70581055,0,5.46875,17,9.71752834,164.7593689,6.27450991,9.8039217,26.71896172,21.96078491,31,-4.78624535
04-Dec-2021 16:53:49.639,36.86274719,22.74509811,23.92156982,14.54792213,14.49633121,59,49.80392075,40.7843132,35,2407.25,1163.20263672,-1.5625,1.5625,17,10.1526413,160.42781067,5.88235283,9.8039217,27.34033203,20.7843132,32.5,-4.35113239
04-Dec-2021 16:53:50.642,36.07843018,22.74509811,23.52941132,14.55150986,14.58515644,59,43.92156982,36.86274338,35,2433.25,1108.08837891,-1.5625,1.5625,16,8.70226383,145.0267334,5.49019623,8.62745094,27.34033203,20.7843132,33,-5.80150986
04-Dec-2021 16:53:51.638,36.86274719,22.74509811,23.52941132,14.55554771,14.42903996,59,41.5686264,35.29411697,36,2421.75,987.70697021,-1.5625,2.34375,16,8.84730244,141.89839172,5.88235283,9.4117651,27.34033203,20,34,-5.65647125
04-Dec-2021 16:53:52.639,36.07843018,22.35294151,23.52941132,14.55913639,14.5268364,59,42.35294342,35.29411697,36,2437,1038.47021484,-1.5625,2.34375,16,8.84730244,138.28877258,5.49019623,8.62745094,27.34033203,20,34,-5.65647125
04-Dec-2021 16:53:53.639,35.68627548,22.35294151,23.13725471,14.5600338,14.53715515,59,42.35294342,35.29411697,36,2440.5,965.95135498,-1.5625,1.5625,16,8.55722618,133.71658325,5.49019623,8.62745094,27.34033203,20,34,-5.94654751
04-Dec-2021 16:53:54.638,36.07843018,22.35294151,23.13725471,14.56182861,14.38821793,60,41.17647171,36.47058868,36,2422,938.39416504,-1.5625,0.78125,15,8.55722618,133.23529053,5.49019623,8.62745094,27.34033203,19.2156868,34,-5.94654751
04-Dec-2021 16:53:55.638,35.68627548,22.35294151,23.13725471,14.56227779,14.47748947,60,41.96078491,34.90196228,36,2412.5,1010.9130249,-1.5625,0.78125,15,8.70226383,137.24598694,5.49019623,8.62745094,27.34033203,20,33.5,-5.80150986
04-Dec-2021 16:53:56.640,35.68627548,22.35294151,23.13725471,14.58784771,13.86199951,60,40.39215851,34.90196228,37,2387,668.6239624,-2.34375,0,15,8.55722618,126.73796844,3.92156863,8.62745094,26.71896172,17.25490189,33.5,-5.94654751
04-Dec-2021 16:53:57.639,33.72549057,20.7843132,21.96078491,14.58515644,14.81798363,60,25.88235283,21.56862831,37,2245.5,564.19677734,-2.34375,-2.34375,15,6.23662281,75.24063873,3.92156863,5.49019623,25.47621918,16.86274529,42,-8.26715088
04-Dec-2021 16:53:58.643,32.54901886,20,20.7843132,14.58605289,14.63405323,60,22.74509811,17.64705849,37,2106.25,449.61697388,-2.34375,-0.78125,15,5.36639643,57.35293961,3.13725495,4.70588255,23.61210442,16.07843208,41,-9.13737679
04-Dec-2021 16:53:59.640,31.76470566,17.64705849,18.4313736,14.58470726,15.16565514,61,17.64705849,12.54901981,37,1983.5,432.21246338,-2.34375,-2.34375,16,4.35113192,40.74866104,1.56862748,3.52941179,22.36936378,15.68627453,35,-10.1526413
04-Dec-2021 16:54:00.640,31.37254906,15.68627453,16.47058868,14.69999981,18.72536278,61,15.29411793,11.37254906,37,1848.5,388.70114136,0,0,16,3.62594342,33.44919968,0,2.74509811,21.12662125,14.11764717,37,-10.87783051
04-Dec-2021 16:54:01.640,30.98039246,13.33333397,12.94117641,14.69999981,20.29997826,61,15.68627453,11.76470566,37,1690.5,403.20492554,0,0,16,4.06105661,30.88235283,0,2.35294127,19.26250648,13.72549057,32,-10.4427166
04-Dec-2021 16:54:02.639,31.37254906,13.33333397,12.94117641,14.69999981,20.29997826,61,27.45098114,21.96078491,37,876,417.7086792,0,0,16,6.52669811,27.8342247,0,2.74509811,16.15565109,14.11764717,21,-7.97707558
04-Dec-2021 16:54:03.643,30.98039246,13.33333397,12.94117641,14.69999981,16.11580849,61,30.98039246,21.1764698,37,782.5,430.76208496,0,0,16,6.96181154,26.55080223,0,2.35294127,13.04879475,13.72549057,13.5,-7.54196215
04-Dec-2021 16:54:04.642,30.58823586,13.33333397,12.94117641,14.67039204,14.94852829,62,30.98039246,21.96078491,38,782.5,442.3651123,0,0,16,7.10684919,27.27272797,0,2.35294127,13.04879475,13.72549057,13.5,-7.3969245
04-Dec-2021 16:54:05.644,30.98039246,15.29411793,16.07843208,14.67039204,16.02698326,62,37.64706039,17.25490189,38,702.5,461.22000122,0,0,17,7.10684919,27.27272797,0,2.35294127,8.69919682,13.72549057,19,-7.3969245
04-Dec-2021 16:54:06.641,34.50980377,22.35294151,22.74509811,14.66725063,16.2835865,62,29.80392265,60.7843132,38,911.75,472.82302856,-0.78125,5.46875,17,10.5877552,91.12299347,5.09803915,5.49019623,7.45645428,14.50980377,11,-3.91601849
04-Dec-2021 16:54:07.641,34.50980377,22.35294151,23.13725471,14.61880207,13.01323318,62,66.27451324,46.27450943,38,1198.5,1076.18005371,-2.34375,8.59375,17,12.47324562,84.14437866,5.09803915,7.05882359,9.32056808,18.03921509,11.5,-2.03052807
04-Dec-2021 16:54:08.640,35.68627548,22.35294151,23.52941132,14.58111858,15.0292778,62,62.35294342,42.35293961,38,1511.25,1092.13415527,-2.34375,1.5625,17,12.18317032,103.47592926,5.49019623,8.62745094,11.80605221,19.6078434,21,-2.32060337
04-Dec-2021 16:54:09.639,37.25490189,23.13725471,24.70588303,14.53760433,14.6398859,62,66.66666412,48.23529434,38,1776.25,1073.27929688,-1.5625,7.8125,17,12.76332092,147.35295105,5.88235283,9.4117651,14.29153728,22.35294151,23,-1.74045277
04-Dec-2021 16:54:10.642,36.86274719,22.74509811,23.52941132,14.5434351,14.51472378,62,57.25490189,40.39215851,38,2090.5,1192.21020508,-1.5625,6.25,16,11.02286816,139.01069641,5.88235283,9.8039217,16.77702141,21.17647171,29,-3.48090553
04-Dec-2021 16:54:11.640,36.86274719,22.74509811,23.92156982,14.55330467,13.96876717,62,46.66666794,40.39215851,38,2374.25,1141.44702148,-1.5625,4.6875,16,9.86256599,151.20321655,5.49019623,8.62745094,18.64113617,20.3921566,33,-4.6412077
04-Dec-2021 16:54:12.642,32.15686417,13.33333397,12.94117641,14.55554771,14.41737556,62,40.39215851,11.37254906,38,2553.25,1061.67626953,-1.5625,1.5625,16,4.20609426,43.71657562,0,4.31372547,20.50524902,19.6078434,35.5,-10.2976799
04-Dec-2021 16:54:13.643,33.72549057,21.17647171,20.7843132,14.69999981,18.97030258,63,0,27.05882263,38,1857.5,701.98266602,0,0,16,6.23662281,113.74331665,3.52941179,5.49019623,20.50524902,14.11764717,39,-8.26715088
04-Dec-2021 16:54:14.639,36.07843018,22.74509811,22.35294151,13.78349304,14.96826839,63,54.11764908,41.96078491,38,1885.25,871.67681885,-1.5625,0.78125,16,10.5877552,125.05347443,5.09803915,8.62745094,21.12662125,20.3921566,26.5,-3.91601849
04-Dec-2021 16:54:15.641,36.07843018,22.35294151,22.35294151,14.56317329,14.25049496,63,51.76470566,41.17647171,39,1975.5,965.95135498,-1.5625,3.90625,16,10.29767895,122.08556366,5.09803915,9.01960754,22.36936378,19.6078434,27.5,-4.20609474
04-Dec-2021 16:54:16.638,35.68627548,21.96078491,21.96078491,14.56317329,14.58067036,63,39.60784531,33.72549057,39,2087.25,965.95135498,-1.5625,3.90625,16,8.99234009,107.88769531,4.70588255,8.23529434,23.61210442,19.6078434,27.5,-5.5114336
04-Dec-2021 16:54:17.639,33.72549057,20.7843132,20.7843132,14.57169724,14.62777328,63,39.60784531,22.74509811,39,2114.75,741.14282227,-2.34375,1.5625,15,6.67173576,72.75400543,3.52941179,5.88235283,23.61210442,17.64705849,33.5,-7.83203793
04-Dec-2021 16:54:18.643,33.33333206,20.3921566,20.3921566,14.58336258,14.52593994,63,23.52941132,20,39,2127,529.38775635,-2.34375,1.5625,15,5.80150938,61.04278183,3.13725495,5.09803915,24.23347664,16.47058868,40.5,-8.70226479
04-Dec-2021 16:54:19.643,32.54901886,18.8235302,18.8235302,14.59009171,14.21460533,63,17.64705849,15.29411793,40,2134,409.00640869,-2.34375,-1.5625,16,4.6412077,45.96256638,1.17647064,4.31372547,24.23347664,14.90196133,45.5,-9.86256599
04-Dec-2021 16:54:20.641,31.76470566,16.47058868,16.47058868,14.69999981,16.33383179,64,14.11764717,12.15686321,40,2087,353.89208984,0,0,16,3.91601896,38.8235321,0,3.52941179,23.61210442,14.50980377,36.5,-10.5877552
04-Dec-2021 16:54:21.639,31.37254906,17.64705849,17.25490189,14.69999981,20.29997826,64,0,10.98039246,40,2043.75,375.6477356,0,0,16,3.62594342,35.69518661,0,3.13725495,22.9907341,14.50980377,36,-10.87783051
04-Dec-2021 16:54:22.641,31.37254906,18.03921509,17.64705849,14.69999981,20.29997826,64,0,11.37254906,40,2017,393.05227661,0,0,16,3.62594342,35.37432861,0,3.13725495,22.9907341,14.50980377,34.5,-10.87783051
04-Dec-2021 16:54:23.640,31.37254906,18.03921509,17.64705849,14.69999981,20.29953003,64,15.68627453,11.37254906,40,1936.25,404.65530396,0,0,16,3.62594342,35.05347443,0.39215687,3.13725495,21.74799156,14.50980377,34.5,-10.87783051
04-Dec-2021 16:54:24.641,31.37254906,17.64705849,17.25490189,14.69999981,20.29953003,64,0,11.37254906,40,1912.5,427.86132812,0,0,17,3.62594342,34.0106926,0,3.13725495,21.74799156,14.11764717,34.5,-10.87783051
04-Dec-2021 16:54:25.643,31.37254906,13.33333397,14.90196133,14.69999981,20.29953003,64,0,11.37254906,40,1874.5,439.46435547,0,0,17,3.62594342,33.20855331,0,2.74509811,21.12662125,14.11764717,35,-10.87783051
04-Dec-2021 16:54:26.642,31.37254906,13.33333397,12.94117641,14.69999981,20.2990818,64,0,11.37254906,40,1816.25,448.16659546,0,0,17,3.77098107,32.1657753,0,2.74509811,20.50524902,14.11764717,34.5,-10.7327919
04-Dec-2021 16:54:27.640,30.98039246,13.33333397,12.94117641,14.69999981,20.2990818,65,0,10.98039246,41,1576.5,458.31924438,0,0,17,3.77098107,27.99465179,0,2.74509811,18.01976395,14.11764717,35,-10.7327919
04-Dec-2021 16:54:28.640,30.98039246,13.33333397,12.94117641,14.69999981,20.29863167,65,17.25490189,11.37254906,41,1343.5,471.37265015,0,0,17,4.06105661,25.6684494,0,2.35294127,15.53427982,13.72549057,21,-10.4427166
04-Dec-2021 16:54:29.640,30.98039246,13.33333397,12.94117641,14.69999981,20.29863167,65,31.76470566,26.27450943,41,777.75,488.77719116,0,0,17,6.23662281,31.28342247,0,2.74509811,13.67016602,13.72549057,11.5,-8.26715088
04-Dec-2021 16:54:30.646,30.98039246,13.33333397,12.94117641,14.69999981,16.53032303,65,29.80392265,20.7843132,41,798.5,496.02905273,0,0,17,6.67173576,26.22994614,0.39215687,2.74509811,10.56331062,13.72549057,16,-7.83203793
04-Dec-2021 16:54:31.642,31.76470566,19.2156868,19.6078434,14.66411114,14.82919884,65,22.74509811,19.6078434,41,989.75,468.47189331,0,0,17,7.10684919,26.22994614,1.56862748,3.13725495,10.56331062,14.11764717,11,-7.3969245
04-Dec-2021 16:54:32.642,35.68627548,22.35294151,23.13725471,14.58964252,15.48057842,65,47.45098114,45.09803772,41,1280.25,704.88342285,-1.5625,7.03125,17,6.23662281,46.36363602,5.49019623,8.62745094,9.94193935,19.2156868,6.5,-8.26715088
04-Dec-2021 16:54:33.648,37.64706039,23.52941132,24.70588303,14.54388428,15.21679688,65,57.25490189,57.25490189,41,1750,1124.04248047,-1.5625,-0.78125,17,12.76332092,134.19786072,5.88235283,10.58823586,13.67016602,19.6078434,23.5,-1.74045277
04-Dec-2021 16:54:34.642,38.03921509,23.52941132,23.92156982,14.53850079,14.41154385,65,61.96078491,46.27450943,41,2042.5,1466.33154297,-1.5625,7.8125,16,11.74805641,144.54545593,6.66666698,11.37254906,16.15565109,23.13725471,26.5,-2.75571728
04-Dec-2021 16:54:35.639,38.82352829,23.52941132,24.31372643,14.53491211,14.22537136,65,57.25490189,49.41176605,42,2372.25,1683.88818359,0,3.90625,16,11.31294346,187.29946899,6.66666698,12.15686321,18.64113617,23.13725471,28.5,-3.19083023
04-Dec-2021 16:54:36.641,38.4313736,23.52941132,24.31372643,14.52728558,14.66366291,65,53.33333588,45.49019623,42,2683.25,1683.88818359,0,0.78125,16,10.44271755,189.54544067,6.66666698,11.76470566,21.74799156,23.13725471,35.5,-4.06105614
04-Dec-2021 16:54:37.642,38.03921509,23.13725471,23.13725471,14.54164124,13.81982994,65,13.72549057,30.58823586,42,3054.25,1651.9798584,0,0,15,7.54196215,85.74865723,6.27450991,11.37254906,24.23347664,23.52941132,36,-6.96181107
04-Dec-2021 16:54:38.641,32.15686417,21.96078491,22.35294151,14.69999981,13.78259563,65,78.4313736,20.3921566,42,2257.5,1634.57531738,0.78125,-6.25,15,5.65647173,179.83956909,0.78431374,3.92156863,24.85484695,24.70588303,23,-8.84730148
04-Dec-2021 16:54:39.639,40.39215851,24.31372643,24.31372643,14.52235126,14.38103962,65,64.31372833,57.25490189,42,2345,1702.74304199,0.78125,7.03125,15,12.47324562,211.52406311,5.88235283,11.37254906,26.71896172,24.70588303,25,-2.03052807
04-Dec-2021 16:54:40.642,37.64706039,23.52941132,22.74509811,14.52638817,14.76953411,66,54.11764908,44.31372452,43,2525,1705.64379883,0,-2.34375,15,9.86256599,178.31550598,5.88235283,11.37254906,28.58307457,23.92156982,32,-4.6412077
04-Dec-2021 16:54:41.641,37.64706039,22.74509811,22.35294151,14.52549171,14.47748947,66,47.45098114,40,43,2792,1319.84338379,0,-3.125,15,8.99234009,183.93048096,5.49019623,10.58823586,31.68992996,21.96078491,35.5,-5.5114336
04-Dec-2021 16:54:42.641,36.86274719,22.74509811,22.35294151,14.53042603,14.17871666,66,13.72549057,35.68627548,43,2889,989.15734863,0,0,15,7.10684919,66.49732208,5.09803915,10.1960783,32.93267441,14.50980377,44.5,-7.3969245
04-Dec-2021 16:54:43.641,34.11764908,21.56862831,17.25490189,14.69999981,20.29773521,66,41.96078491,12.94117641,43,1596.5,577.25018311,-2.34375,0,15,3.77098107,43.55614853,3.52941179,6.27450991,32.93267441,17.25490189,36,-10.7327919
04-Dec-2021 16:54:44.642,34.90196228,22.35294151,21.96078491,13.9566555,14.93955708,66,35.68627548,32.54901886,43,2295.5,694.73077393,-1.5625,-3.125,15,8.84730244,152.00535583,4.31372547,7.45098066,32.93267441,18.4313736,38,-5.65647125
04-Dec-2021 16:54:45.641,36.86274719,22.74509811,22.35294151,14.33348656,14.21909142,66,45.09804153,38.4313736,43,2375.25,1195.11096191,-1.5625,5.46875,15,9.57249069,143.50267029,5.09803915,9.8039217,34.17541504,21.56862831,31.5,-4.931283
04-Dec-2021 16:54:46.644,36.47058868,22.74509811,22.35294151,14.55554771,14.64167976,66,43.13725662,37.64706039,43,2410,1016.71453857,-1.5625,0.78125,15,9.13737774,137.00534058,5.09803915,9.01960754,34.79678726,20.3921566,34,-5.36639595
04-Dec-2021 16:54:47.651,35.68627548,22.35294151,21.56862831,14.58605289,14.14955616,67,29.01960754,30.98039246,44,2451.5,597.55548096,-2.34375,-0.78125,15,8.26715088,97.94117737,3.92156863,8.62745094,35.41815948,17.64705849,41.5,-6.23662281
04-Dec-2021 16:54:48.647,34.11764908,21.56862831,21.17647171,14.58829689,14.83009624,67,26.27450943,23.52941132,44,2446.25,555.49450684,-2.34375,0,15,6.67173576,86.87165833,3.92156863,6.27450991,35.41815948,17.64705849,43,-7.83203793
04-Dec-2021 16:54:49.641,34.50980377,21.56862831,21.56862831,14.58336258,14.54478168,67,27.05882454,23.52941132,44,2454.25,619.31115723,-2.34375,1.5625,15,6.23662281,89.67914581,3.92156863,6.66666698,35.41815948,18.03921509,43,-8.26715088
04-Dec-2021 16:54:50.647,34.50980377,21.56862831,21.56862831,14.58336258,14.27471924,67,36.86274719,32.94117737,44,2458,619.31115723,-2.34375,0,15,7.83203793,114.22459412,3.92156863,6.66666698,35.41815948,18.03921509,43,-6.67173576
04-Dec-2021 16:54:51.642,34.50980377,21.56862831,21.56862831,14.58336258,14.27471924,67,36.86274719,32.94117737,44,2458,907.93621826,-1.5625,0,15,7.83203793,114.22459412,3.92156863,6.66666698,35.41815948,19.6078434,36.5,-6.67173576
04-Dec-2021 16:54:52.638,36.07843018,22.35294151,22.74509811,14.57752991,15.20737553,67,36.86274719,32.94117737,44,2458,907.93621826,-1.5625,0,15,7.83203793,114.22459412,5.09803915,8.23529434,35.41815948,19.6078434,36.5,-6.67173576
04-Dec-2021 16:54:53.640,36.07843018,22.35294151,22.74509811,14.57752991,15.20737553,67,36.86274719,34.90196228,44,2458,907.93621826,-1.5625,0,15,7.83203793,114.22459412,5.09803915,8.23529434,35.41815948,19.6078434,36.5,-6.67173576
04-Dec-2021 16:54:54.641,36.07843018,22.35294151,22.74509811,14.57752991,14.88886452,68,30.58823586,34.90196228,45,2394.5,861.52416992,-1.5625,-3.125,15,7.54196215,109.65240479,5.09803915,8.23529434,34.17541504,18.4313736,40,-6.96181107
04-Dec-2021 16:54:55.641,36.07843018,22.35294151,22.74509811,14.57752991,14.88886452,68,30.58823586,34.90196228,45,2394.5,861.52416992,-1.5625,-3.125,15,7.54196215,109.65240479,5.09803915,8.23529434,34.17541504,18.4313736,40,-6.96181107
04-Dec-2021 16:54:56.640,37.25490189,23.13725471,22.74509811,14.53894901,14.41289043,68,30.58823586,45.49019623,45,2394.5,861.52416992,-1.5625,-3.125,15,7.54196215,109.65240479,5.49019623,10.1960783,34.17541504,18.4313736,40,-6.96181107
04-Dec-2021 16:54:57.640,37.25490189,23.13725471,22.74509811,14.53894901,14.41289043,68,30.58823586,45.49019623,45,2394.5,861.52416992,-1.5625,-3.125,15,7.54196215,109.65240479,5.49019623,10.1960783,34.17541504,18.4313736,40,-6.96181107